| time (UTC) | temp F | wind direction | speed knots | gust knots | rain 1hr in | rain 24hr in | rain mn in | humidity % | barometer mb |
| 20260505093118 | 47 | 31 | 1.7 | 1.7 | 0.00 | 0.00 | 0.00 | 76 | 1008.8 |
| 20260505092918 | 47 | 344 | 0.9 | 1.7 | 0.00 | 0.00 | 0.00 | 76 | 1008.4 |
| 20260505092718 | 47 | 306 | 1.7 | 3.5 | 0.00 | 0.00 | 0.00 | 76 | 1008.6 |
| 20260505092518 | 47 | 313 | 3.5 | 7.0 | 0.00 | 0.00 | 0.00 | 76 | 1008.8 |
| 20260505092318 | 47 | 318 | 2.6 | 2.6 | 0.00 | 0.00 | 0.00 | 76 | 1008.8 |
| 20260505092118 | 47 | 352 | 0.9 | 3.5 | 0.00 | 0.00 | 0.00 | 76 | 1008.6 |
| 20260505091918 | 47 | 36 | 1.7 | 5.2 | 0.00 | 0.00 | 0.00 | 76 | 1008.7 |
| 20260505091718 | 47 | 349 | 1.7 | 2.6 | 0.00 | 0.00 | 0.00 | 76 | 1008.9 |
| 20260505091518 | 47 | 24 | 1.7 | 1.7 | 0.00 | 0.00 | 0.00 | 76 | 1009.0 |
| 20260505091118 | 47 | 335 | 1.7 | 3.5 | 0.00 | 0.00 | 0.00 | 76 | 1008.8 |
| 20260505090918 | 47 | 329 | 1.7 | 6.1 | 0.00 | 0.00 | 0.00 | 75 | 1008.8 |
| 20260505090517 | 47 | 359 | 2.6 | 3.5 | 0.00 | 0.00 | 0.00 | 75 | 1008.7 |
| 20260505090318 | 47 | 353 | 3.5 | 5.2 | 0.00 | 0.00 | 0.00 | 75 | 1008.6 |
| 20260505085918 | 48 | 33 | 0.9 | 1.7 | 0.00 | 0.00 | 0.00 | 75 | 1009.0 |
| 20260505085718 | 48 | 9 | 0.9 | 2.6 | 0.00 | 0.00 | 0.00 | 75 | 1008.9 |
| 20260505085518 | 48 | 22 | 0.9 | 2.6 | 0.00 | 0.00 | 0.00 | 75 | 1008.8 |
| 20260505085318 | 48 | 356 | 0.9 | 1.7 | 0.00 | 0.00 | 0.00 | 75 | 1008.6 |
| 20260505085118 | 48 | 27 | 0.9 | 1.7 | 0.00 | 0.00 | 0.00 | 75 | 1008.8 |
| 20260505084918 | 48 | 358 | 0.9 | 5.2 | 0.00 | 0.00 | 0.00 | 75 | 1009.0 |
| 20260505084518 | 48 | 32 | 0.9 | 1.7 | 0.00 | 0.00 | 0.00 | 74 | 1008.9 |
| 20260505084318 | 48 | 34 | 1.7 | 1.7 | 0.00 | 0.00 | 0.00 | 74 | 1008.8 |
| 20260505084118 | 48 | 31 | 2.6 | 2.6 | 0.00 | 0.00 | 0.00 | 74 | 1008.8 |
| 20260505083919 | 48 | 33 | 0.9 | 2.6 | 0.00 | 0.00 | 0.00 | 74 | 1009.0 |
| 20260505083718 | 48 | 23 | 0.9 | 1.7 | 0.00 | 0.00 | 0.00 | 74 | 1008.9 |
| 20260505083518 | 48 | 14 | 1.7 | 1.7 | 0.00 | 0.00 | 0.00 | 74 | 1008.8 |
| 20260505083318 | 48 | 334 | 0.9 | 3.5 | 0.00 | 0.00 | 0.00 | 74 | 1008.6 |
| 20260505083118 | 48 | 350 | 0.9 | 3.5 | 0.00 | 0.00 | 0.00 | 74 | 1008.8 |
| 20260505082919 | 48 | 327 | 1.7 | 2.6 | 0.00 | 0.00 | 0.00 | 74 | 1008.6 |
| 20260505082718 | 48 | 297 | 2.6 | 6.1 | 0.00 | 0.00 | 0.00 | 74 | 1008.4 |
| 20260505082518 | 48 | 333 | 0.9 | 2.6 | 0.00 | 0.00 | 0.00 | 73 | 1008.4 |
| 20260505082118 | 48 | 18 | 1.7 | 2.6 | 0.00 | 0.00 | 0.00 | 73 | 1008.5 |
| 20260505081918 | 48 | 344 | 0.9 | 2.6 | 0.00 | 0.00 | 0.00 | 73 | 1008.6 |
| 20260505081718 | 48 | 30 | 0.9 | 1.7 | 0.00 | 0.00 | 0.00 | 73 | 1008.7 |
| 20260505081518 | 48 | 3 | 0.9 | 0.9 | 0.00 | 0.00 | 0.00 | 73 | 1008.4 |
| 20260505081318 | 48 | 333 | 0.9 | 2.6 | 0.00 | 0.00 | 0.00 | 73 | 1008.4 |
| 20260505081118 | 48 | 11 | 2.6 | 2.6 | 0.00 | 0.00 | 0.00 | 73 | 1008.4 |
| 20260505080919 | 48 | 17 | 0.9 | 0.9 | 0.00 | 0.00 | 0.00 | 73 | 1008.4 |
| 20260505080718 | 48 | 29 | 0.0 | 1.7 | 0.00 | 0.00 | 0.00 | 73 | 1008.3 |
| 20260505080518 | 48 | 9 | 0.9 | 2.6 | 0.00 | 0.00 | 0.00 | 74 | 1008.2 |
| 20260505080318 | 48 | 317 | 1.7 | 2.6 | 0.00 | 0.00 | 0.00 | 74 | 1008.3 |
| 20260505080118 | 48 | 12 | 1.7 | 1.7 | 0.00 | 0.00 | 0.00 | 73 | 1008.3 |
| 20260505075918 | 48 | 351 | 0.0 | 1.7 | 0.00 | 0.00 | 0.00 | 73 | 1008.1 |
| 20260505075718 | 48 | 316 | 1.7 | 1.7 | 0.00 | 0.00 | 0.00 | 74 | 1008.1 |
| 20260505075318 | 48 | 32 | 0.9 | 2.6 | 0.00 | 0.00 | 0.00 | 73 | 1008.3 |
| 20260505075118 | 48 | 7 | 0.9 | 0.9 | 0.00 | 0.00 | 0.00 | 73 | 1008.2 |
| 20260505074918 | 48 | 10 | 1.7 | 1.7 | 0.00 | 0.00 | 0.00 | 73 | 1008.2 |
| 20260505074718 | 48 | 15 | 0.9 | 0.9 | 0.00 | 0.00 | 0.00 | 73 | 1008.1 |
| 20260505074318 | 48 | 322 | 0.9 | 1.7 | 0.00 | 0.00 | 0.00 | 73 | 1008.4 |
| 20260505074118 | 48 | 24 | 2.6 | 3.5 | 0.00 | 0.00 | 0.00 | 73 | 1008.1 |
| 20260505073918 | 48 | 18 | 0.9 | 2.6 | 0.00 | 0.00 | 0.00 | 73 | 1008.2 |
| 20260505073718 | 48 | 60 | 1.7 | 1.7 | 0.00 | 0.00 | 0.00 | 73 | 1008.3 |
| 20260505073518 | 48 | 36 | 0.9 | 1.7 | 0.00 | 0.00 | 0.00 | 73 | 1008.3 |
| 20260505073318 | 48 | 355 | 1.7 | 3.5 | 0.00 | 0.00 | 0.00 | 73 | 1008.3 |
| 20260505073118 | 48 | 10 | 1.7 | 3.5 | 0.00 | 0.00 | 0.00 | 73 | 1008.1 |
| 20260505072718 | 48 | 359 | 0.9 | 2.6 | 0.00 | 0.00 | 0.00 | 73 | 1008.2 |
| 20260505072518 | 48 | 25 | 0.0 | 0.9 | 0.00 | 0.00 | 0.00 | 73 | 1007.9 |
| 20260505072318 | 48 | 3 | 0.9 | 0.9 | 0.00 | 0.00 | 0.00 | 73 | 1008.0 |
| 20260505072118 | 48 | 3 | 0.9 | 2.6 | 0.00 | 0.00 | 0.00 | 72 | 1008.0 |
| 20260505071718 | 48 | 26 | 0.9 | 1.7 | 0.00 | 0.00 | 0.00 | 72 | 1008.0 |
| 20260505071518 | 48 | 0 | 2.6 | 3.5 | 0.00 | 0.00 | 0.00 | 72 | 1007.9 |
| 20260505071318 | 48 | 7 | 1.7 | 2.6 | 0.00 | 0.00 | 0.00 | 73 | 1008.1 |
| 20260505070718 | 48 | 24 | 0.9 | 1.7 | 0.00 | 0.00 | 0.00 | 73 | 1008.3 |
| 20260505070518 | 48 | 36 | 1.7 | 1.7 | 0.00 | 0.00 | 0.00 | 73 | 1007.9 |
| 20260505070118 | 48 | 332 | 0.9 | 2.6 | 0.00 | 0.00 | 0.00 | 73 | 1007.7 |
| 20260505065918 | 48 | 23 | 0.9 | 1.7 | 0.00 | 0.00 | 0.00 | 72 | 1008.1 |
| 20260505065718 | 48 | 32 | 0.9 | 2.6 | 0.00 | 0.00 | 0.00 | 72 | 1008.1 |
| 20260505065318 | 48 | 13 | 1.7 | 1.7 | 0.00 | 0.00 | 0.00 | 72 | 1008.0 |
| 20260505065118 | 48 | 354 | 0.9 | 0.9 | 0.00 | 0.00 | 0.00 | 73 | 1007.8 |
| 20260505064918 | 48 | 352 | 0.9 | 0.9 | 0.00 | 0.00 | 0.00 | 73 | 1007.7 |
| 20260505064718 | 48 | 348 | 0.9 | 0.9 | 0.00 | 0.00 | 0.00 | 73 | 1007.5 |
| 20260505064318 | 48 | 2 | 0.9 | 2.6 | 0.00 | 0.00 | 0.00 | 73 | 1007.9 |
| 20260505063917 | 48 | 37 | 0.9 | 2.6 | 0.00 | 0.00 | 0.00 | 73 | 1007.8 |
| 20260505063717 | 48 | 352 | 0.0 | 0.9 | 0.00 | 0.00 | 0.00 | 73 | 1007.9 |
| 20260505063518 | 48 | 353 | 0.9 | 0.9 | 0.00 | 0.00 | 0.00 | 73 | 1008.1 |
| 20260505063317 | 48 | 345 | 0.0 | 2.6 | 0.00 | 0.00 | 0.00 | 73 | 1007.6 |
| 20260505063117 | 48 | 302 | 0.9 | 2.6 | 0.00 | 0.00 | 0.00 | 72 | 1007.9 |
| 20260505062917 | 48 | 24 | 0.0 | 2.6 | 0.00 | 0.00 | 0.00 | 73 | 1007.9 |
| 20260505062717 | 48 | 6 | 0.9 | 2.6 | 0.00 | 0.00 | 0.00 | 73 | 1008.0 |
| 20260505062517 | 48 | 358 | 0.9 | 5.2 | 0.00 | 0.00 | 0.00 | 73 | 1007.8 |
| 20260505062318 | 48 | 339 | 0.9 | 2.6 | 0.00 | 0.00 | 0.00 | 73 | 1007.8 |
| 20260505062117 | 48 | 308 | 1.7 | 2.6 | 0.00 | 0.00 | 0.00 | 73 | 1007.7 |
| 20260505061917 | 48 | 0 | 1.7 | 2.6 | 0.00 | 0.00 | 0.00 | 73 | 1007.4 |
| 20260505061717 | 48 | 350 | 0.0 | 0.0 | 0.00 | 0.00 | 0.00 | 73 | 1007.7 |
| 20260505061317 | 48 | 331 | 1.7 | 2.6 | 0.00 | 0.00 | 0.00 | 73 | 1007.9 |
| 20260505061118 | 48 | 305 | 1.7 | 3.5 | 0.00 | 0.00 | 0.00 | 73 | 1007.8 |
| 20260505060917 | 48 | 307 | 1.7 | 2.6 | 0.00 | 0.00 | 0.00 | 73 | 1007.9 |
| 20260505060718 | 48 | 334 | 0.9 | 1.7 | 0.00 | 0.00 | 0.00 | 73 | 1007.8 |
| 20260505060517 | 48 | 17 | 0.9 | 1.7 | 0.00 | 0.00 | 0.00 | 73 | 1007.9 |
| 20260505060317 | 48 | 330 | 0.9 | 2.6 | 0.00 | 0.00 | 0.00 | 73 | 1007.7 |
| 20260505060117 | 48 | 1 | 2.6 | 3.5 | 0.00 | 0.00 | 0.00 | 73 | 1007.6 |
| 20260505055917 | 48 | 330 | 1.7 | 2.6 | 0.00 | 0.00 | 0.00 | 73 | 1007.6 |
| 20260505055717 | 48 | 22 | 0.9 | 1.7 | 0.00 | 0.00 | 0.00 | 73 | 1007.6 |
| 20260505055518 | 48 | 4 | 0.9 | 1.7 | 0.00 | 0.00 | 0.00 | 73 | 1007.6 |
| 20260505055117 | 48 | 331 | 0.9 | 3.5 | 0.00 | 0.00 | 0.00 | 74 | 1007.6 |
| 20260505054718 | 48 | 5 | 0.9 | 2.6 | 0.00 | 0.00 | 0.00 | 74 | 1007.5 |
| 20260505054517 | 47 | 18 | 0.9 | 1.7 | 0.00 | 0.00 | 0.00 | 74 | 1007.4 |
| 20260505054318 | 47 | 349 | 0.9 | 2.6 | 0.00 | 0.00 | 0.00 | 74 | 1007.5 |
| 20260505054117 | 47 | 341 | 0.9 | 2.6 | 0.00 | 0.00 | 0.00 | 74 | 1007.4 |
| 20260505053918 | 47 | 8 | 1.7 | 1.7 | 0.00 | 0.00 | 0.00 | 74 | 1007.4 |
| 20260505053718 | 48 | 337 | 0.9 | 3.5 | 0.00 | 0.00 | 0.00 | 74 | 1007.3 |
| 20260505053518 | 47 | 342 | 0.9 | 2.6 | 0.00 | 0.00 | 0.00 | 74 | 1007.1 |
| 20260505053318 | 47 | 340 | 0.9 | 6.1 | 0.00 | 0.00 | 0.00 | 74 | 1007.0 |
| 20260505052918 | 47 | 321 | 0.9 | 3.5 | 0.00 | 0.00 | 0.00 | 74 | 1007.3 |
| 20260505052718 | 47 | 325 | 0.9 | 2.6 | 0.00 | 0.00 | 0.00 | 74 | 1007.4 |
| 20260505052518 | 47 | 324 | 1.7 | 1.7 | 0.00 | 0.00 | 0.00 | 74 | 1007.1 |
| 20260505052318 | 47 | 326 | 1.7 | 1.7 | 0.00 | 0.00 | 0.00 | 74 | 1007.0 |
| 20260505052118 | 47 | 329 | 0.9 | 1.7 | 0.00 | 0.00 | 0.00 | 74 | 1007.2 |
| 20260505051918 | 47 | 323 | 1.7 | 1.7 | 0.00 | 0.00 | 0.00 | 74 | 1007.0 |
| 20260505051718 | 47 | 322 | 0.9 | 1.7 | 0.00 | 0.00 | 0.00 | 74 | 1007.2 |
| 20260505051518 | 47 | 321 | 1.7 | 1.7 | 0.00 | 0.00 | 0.00 | 74 | 1007.3 |
| 20260505051318 | 47 | 315 | 0.9 | 0.9 | 0.00 | 0.00 | 0.00 | 74 | 1007.2 |
| 20260505050918 | 47 | 315 | 0.9 | 0.9 | 0.00 | 0.00 | 0.00 | 74 | 1007.3 |
| 20260505050718 | 47 | 313 | 1.7 | 3.5 | 0.00 | 0.00 | 0.00 | 74 | 1006.9 |
| 20260505050317 | 47 | 321 | 1.7 | 3.5 | 0.00 | 0.00 | 0.00 | 75 | 1007.0 |
| 20260505050117 | 47 | 308 | 1.7 | 1.7 | 0.00 | 0.00 | 0.00 | 75 | 1006.9 |
| 20260505041718 | 49 | 16 | 0.0 | 1.7 | 0.00 | 0.00 | 0.00 | 71 | 1006.6 |
| 20260505041518 | 49 | 353 | 0.0 | 0.9 | 0.00 | 0.00 | 0.00 | 71 | 1006.4 |
| 20260505041318 | 49 | 353 | 0.0 | 0.0 | 0.00 | 0.00 | 0.00 | 70 | 1006.4 |
| 20260505041118 | 49 | 353 | 0.0 | 0.9 | 0.00 | 0.00 | 0.00 | 70 | 1006.3 |
| 20260505040918 | 49 | 353 | 0.9 | 0.9 | 0.00 | 0.00 | 0.00 | 70 | 1006.5 |
| 20260505040718 | 49 | 10 | 0.0 | 0.0 | 0.00 | 0.00 | 0.00 | 70 | 1006.5 |
| 20260505040518 | 49 | 10 | 0.0 | 0.0 | 0.00 | 0.00 | 0.00 | 69 | 1006.4 |
| 20260505040317 | 49 | 10 | 0.0 | 0.9 | 0.00 | 0.00 | 0.00 | 69 | 1006.5 |
| 20260505040117 | 49 | 10 | 0.9 | 1.7 | 0.00 | 0.00 | 0.00 | 69 | 1006.2 |
| 20260505035917 | 49 | 347 | 0.9 | 0.9 | 0.00 | 0.00 | 0.00 | 69 | 1006.3 |
| 20260505035717 | 49 | 1 | 0.9 | 1.7 | 0.00 | 0.00 | 0.00 | 69 | 1006.4 |
| 20260505035517 | 49 | 327 | 1.7 | 1.7 | 0.00 | 0.00 | 0.00 | 69 | 1006.4 |
| 20260505035317 | 49 | 11 | 1.7 | 2.6 | 0.00 | 0.00 | 0.00 | 69 | 1006.4 |
| 20260505035117 | 49 | 359 | 0.0 | 0.9 | 0.00 | 0.00 | 0.00 | 69 | 1006.3 |
| 20260505034717 | 49 | 2 | 0.0 | 0.9 | 0.00 | 0.00 | 0.00 | 69 | 1006.5 |
| 20260505034517 | 49 | 318 | 0.0 | 0.9 | 0.00 | 0.00 | 0.00 | 69 | 1006.4 |
| 20260505034117 | 49 | 323 | 0.9 | 1.7 | 0.00 | 0.00 | 0.00 | 69 | 1006.1 |
| 20260505033918 | 49 | 338 | 0.0 | 0.9 | 0.00 | 0.00 | 0.00 | 69 | 1006.3 |
| 20260505033718 | 49 | 337 | 0.0 | 0.0 | 0.00 | 0.00 | 0.00 | 69 | 1006.2 |
| 20260505033518 | 49 | 337 | 0.9 | 0.9 | 0.00 | 0.00 | 0.00 | 69 | 1006.2 |
| 20260505033318 | 49 | 341 | 0.0 | 0.9 | 0.00 | 0.00 | 0.00 | 68 | 1006.0 |
| 20260505033117 | 49 | 339 | 0.0 | 0.9 | 0.00 | 0.00 | 0.00 | 68 | 1006.3 |
| 20260505032917 | 49 | 332 | 0.0 | 0.0 | 0.00 | 0.00 | 0.00 | 68 | 1006.1 |
| 20260505032518 | 49 | 304 | 0.0 | 1.7 | 0.00 | 0.00 | 0.00 | 68 | 1005.9 |
| 20260505032317 | 49 | 343 | 0.0 | 0.9 | 0.00 | 0.00 | 0.00 | 68 | 1006.2 |
| 20260505032118 | 49 | 342 | 0.9 | 0.9 | 0.00 | 0.00 | 0.00 | 67 | 1005.9 |
| 20260505031917 | 49 | 335 | 0.9 | 1.7 | 0.00 | 0.00 | 0.00 | 67 | 1006.0 |
| 20260505031717 | 49 | 331 | 0.0 | 0.0 | 0.00 | 0.00 | 0.00 | 67 | 1005.7 |
| 20260505031517 | 49 | 331 | 0.0 | 0.9 | 0.00 | 0.00 | 0.00 | 67 | 1005.8 |
| 20260505031317 | 50 | 331 | 0.9 | 0.9 | 0.00 | 0.00 | 0.00 | 67 | 1005.7 |
| 20260505031117 | 50 | 330 | 0.0 | 0.9 | 0.00 | 0.00 | 0.00 | 66 | 1005.7 |
| 20260505030917 | 50 | 330 | 0.0 | 0.9 | 0.00 | 0.00 | 0.00 | 66 | 1005.7 |
| 20260505030517 | 50 | 330 | 0.0 | 0.9 | 0.00 | 0.00 | 0.00 | 66 | 1005.8 |
| 20260505025917 | 50 | 25 | 0.9 | 0.9 | 0.00 | 0.04 | 0.00 | 65 | 1005.4 |
| 20260505025717 | 50 | 26 | 0.0 | 0.0 | 0.00 | 0.04 | 0.00 | 65 | 1005.3 |
| 20260505025517 | 50 | 26 | 0.9 | 1.7 | 0.00 | 0.04 | 0.00 | 65 | 1005.2 |
| 20260505025117 | 50 | 25 | 0.9 | 1.7 | 0.00 | 0.04 | 0.00 | 64 | 1005.3 |
| 20260505024917 | 50 | 346 | 0.9 | 1.7 | 0.00 | 0.04 | 0.00 | 64 | 1005.1 |
| 20260505024717 | 50 | 13 | 0.9 | 1.7 | 0.00 | 0.04 | 0.00 | 64 | 1005.2 |
| 20260505024518 | 50 | 12 | 0.9 | 5.2 | 0.00 | 0.04 | 0.00 | 64 | 1005.4 |
| 20260505024317 | 50 | 331 | 0.0 | 1.7 | 0.00 | 0.04 | 0.00 | 64 | 1005.2 |
| 20260505024117 | 50 | 314 | 1.7 | 1.7 | 0.00 | 0.04 | 0.00 | 64 | 1005.2 |
| 20260505023918 | 50 | 354 | 0.9 | 1.7 | 0.00 | 0.04 | 0.00 | 64 | 1005.3 |
| 20260505023718 | 50 | 348 | 0.9 | 0.9 | 0.00 | 0.04 | 0.00 | 64 | 1005.1 |
| 20260505023518 | 50 | 346 | 0.9 | 0.9 | 0.00 | 0.04 | 0.00 | 64 | 1005.2 |
| 20260505023318 | 51 | 344 | 0.9 | 0.9 | 0.00 | 0.04 | 0.00 | 63 | 1005.2 |
| 20260505023118 | 51 | 344 | 0.9 | 0.9 | 0.00 | 0.04 | 0.00 | 63 | 1005.2 |
| 20260505022918 | 51 | 17 | 0.9 | 1.7 | 0.00 | 0.04 | 0.00 | 63 | 1005.2 |
| 20260505022718 | 51 | 29 | 0.9 | 1.7 | 0.00 | 0.04 | 0.00 | 62 | 1005.0 |
| 20260505022318 | 51 | 21 | 0.9 | 3.5 | 0.00 | 0.04 | 0.00 | 62 | 1005.0 |
| 20260505022118 | 51 | 22 | 0.9 | 1.7 | 0.00 | 0.04 | 0.00 | 62 | 1004.9 |
| 20260505021918 | 51 | 8 | 0.9 | 2.6 | 0.00 | 0.04 | 0.00 | 62 | 1004.9 |
| 20260505021722 | 51 | 28 | 0.9 | 2.6 | 0.00 | 0.04 | 0.00 | 62 | 1004.9 |
| 20260505021518 | 51 | 8 | 0.9 | 1.7 | 0.00 | 0.04 | 0.00 | 62 | 1005.0 |
| 20260505021318 | 51 | 6 | 0.9 | 1.7 | 0.00 | 0.04 | 0.00 | 62 | 1005.0 |
| 20260505021118 | 51 | 7 | 0.0 | 3.5 | 0.00 | 0.04 | 0.00 | 62 | 1004.7 |
| 20260505020918 | 51 | 9 | 0.9 | 1.7 | 0.00 | 0.04 | 0.00 | 62 | 1004.9 |
| 20260505020718 | 51 | 10 | 0.9 | 2.6 | 0.00 | 0.04 | 0.00 | 61 | 1004.8 |
| 20260505020518 | 51 | 345 | 0.9 | 1.7 | 0.00 | 0.04 | 0.00 | 61 | 1004.8 |
| 20260505020318 | 51 | 27 | 0.0 | 0.9 | 0.00 | 0.04 | 0.00 | 61 | 1004.8 |
| 20260505015918 | 51 | 355 | 0.9 | 1.7 | 0.00 | 0.04 | 0.00 | 61 | 1004.9 |
| 20260505015718 | 51 | 12 | 0.9 | 1.7 | 0.00 | 0.04 | 0.00 | 60 | 1004.7 |
| 20260505015518 | 51 | 358 | 0.0 | 0.9 | 0.00 | 0.04 | 0.00 | 60 | 1004.8 |
| 20260505015318 | 51 | 16 | 0.9 | 1.7 | 0.00 | 0.04 | 0.00 | 60 | 1004.6 |
| 20260505015118 | 51 | 323 | 1.7 | 2.6 | 0.00 | 0.04 | 0.00 | 60 | 1004.8 |
| 20260505014918 | 51 | 321 | 1.7 | 1.7 | 0.00 | 0.04 | 0.00 | 60 | 1004.7 |
| 20260505014718 | 51 | 332 | 0.9 | 5.2 | 0.00 | 0.04 | 0.00 | 60 | 1004.5 |
| 20260505014518 | 52 | 12 | 0.9 | 1.7 | 0.00 | 0.04 | 0.00 | 60 | 1004.7 |
| 20260505014118 | 52 | 358 | 0.9 | 2.6 | 0.00 | 0.04 | 0.00 | 59 | 1004.5 |
| 20260505013918 | 52 | 354 | 0.9 | 1.7 | 0.00 | 0.04 | 0.00 | 59 | 1004.5 |
| 20260505013718 | 52 | 8 | 1.7 | 1.7 | 0.00 | 0.04 | 0.00 | 59 | 1004.4 |
| 20260505013518 | 52 | 13 | 0.9 | 3.5 | 0.00 | 0.04 | 0.00 | 59 | 1004.6 |
| 20260505013318 | 52 | 18 | 0.9 | 1.7 | 0.00 | 0.04 | 0.00 | 59 | 1004.4 |
| 20260505013118 | 52 | 7 | 0.9 | 1.7 | 0.00 | 0.04 | 0.00 | 58 | 1004.7 |
| 20260505012918 | 52 | 3 | 0.0 | 1.7 | 0.00 | 0.04 | 0.00 | 58 | 1004.4 |
| 20260505012718 | 52 | 347 | 0.9 | 5.2 | 0.00 | 0.04 | 0.00 | 58 | 1004.5 |
| 20260505012526 | 52 | 19 | 0.9 | 2.6 | 0.00 | 0.04 | 0.00 | 58 | 1004.4 |
| 20260505012118 | 52 | 359 | 0.9 | 2.6 | 0.00 | 0.04 | 0.00 | 58 | 1004.3 |
| 20260505011918 | 52 | 8 | 0.9 | 3.5 | 0.00 | 0.04 | 0.00 | 58 | 1004.5 |
| 20260505011718 | 52 | 355 | 1.7 | 2.6 | 0.00 | 0.04 | 0.00 | 58 | 1004.5 |
| 20260505011518 | 52 | 326 | 1.7 | 6.1 | 0.00 | 0.04 | 0.00 | 57 | 1004.4 |
| 20260505011318 | 52 | 24 | 1.7 | 1.7 | 0.00 | 0.04 | 0.00 | 57 | 1004.3 |
| 20260505011118 | 52 | 34 | 2.6 | 5.2 | 0.00 | 0.04 | 0.00 | 57 | 1004.3 |
| 20260505010718 | 52 | 333 | 2.6 | 2.6 | 0.00 | 0.04 | 0.00 | 57 | 1004.2 |
| 20260505010518 | 52 | 16 | 1.7 | 2.6 | 0.00 | 0.04 | 0.00 | 57 | 1004.3 |
| 20260505010318 | 52 | 1 | 0.9 | 0.9 | 0.00 | 0.04 | 0.00 | 58 | 1004.1 |
| 20260505010118 | 52 | 356 | 0.9 | 0.9 | 0.00 | 0.04 | 0.00 | 57 | 1004.1 |
| 20260505005917 | 52 | 355 | 1.7 | 1.7 | 0.00 | 0.04 | 0.00 | 57 | 1004.1 |
| 20260505005717 | 53 | 349 | 0.9 | 0.9 | 0.00 | 0.04 | 0.00 | 58 | 1004.2 |
| 20260505005118 | 53 | 357 | 0.0 | 0.0 | 0.00 | 0.04 | 0.00 | 56 | 1004.0 |
| 20260505004917 | 53 | 346 | 0.9 | 2.6 | 0.00 | 0.04 | 0.00 | 55 | 1003.9 |
| 20260505004717 | 53 | 18 | 0.0 | 1.7 | 0.00 | 0.04 | 0.00 | 55 | 1004.0 |
| 20260505004518 | 53 | 13 | 0.9 | 1.7 | 0.00 | 0.04 | 0.00 | 55 | 1003.9 |
| 20260505004317 | 53 | 2 | 0.9 | 2.6 | 0.00 | 0.04 | 0.00 | 55 | 1003.9 |
| 20260505004117 | 53 | 26 | 0.9 | 6.1 | 0.00 | 0.04 | 0.00 | 54 | 1003.8 |
| 20260505003918 | 53 | 1 | 2.6 | 5.2 | 0.00 | 0.04 | 0.00 | 54 | 1003.9 |
| 20260505003718 | 54 | 345 | 1.7 | 1.7 | 0.00 | 0.04 | 0.00 | 56 | 1003.8 |
| 20260505003518 | 54 | 308 | 1.7 | 3.5 | 0.00 | 0.04 | 0.00 | 54 | 1003.8 |
| 20260505003319 | 54 | 23 | 1.7 | 2.6 | 0.00 | 0.04 | 0.00 | 53 | 1003.8 |
| 20260505003118 | 54 | 30 | 1.7 | 2.6 | 0.00 | 0.04 | 0.00 | 53 | 1003.7 |
| 20260505002918 | 54 | 10 | 0.9 | 1.7 | 0.00 | 0.04 | 0.00 | 53 | 1003.7 |
| 20260505002718 | 54 | 40 | 2.6 | 3.5 | 0.00 | 0.04 | 0.00 | 53 | 1003.8 |
| 20260505002518 | 54 | 28 | 1.7 | 2.6 | 0.00 | 0.04 | 0.00 | 53 | 1003.7 |
| 20260505002118 | 54 | 13 | 0.0 | 3.5 | 0.00 | 0.04 | 0.00 | 53 | 1003.5 |
| 20260505001918 | 54 | 1 | 0.9 | 2.6 | 0.00 | 0.04 | 0.00 | 53 | 1003.6 |
| 20260505001718 | 54 | 26 | 1.7 | 3.5 | 0.00 | 0.04 | 0.00 | 52 | 1003.6 |
| 20260505001518 | 55 | 306 | 0.9 | 3.5 | 0.00 | 0.04 | 0.00 | 53 | 1003.5 |
| 20260505001318 | 55 | 34 | 3.5 | 5.2 | 0.00 | 0.04 | 0.00 | 52 | 1003.7 |
| 20260505001118 | 55 | 5 | 0.9 | 5.2 | 0.00 | 0.04 | 0.00 | 53 | 1003.6 |
| 20260505000918 | 54 | 30 | 4.3 | 6.1 | 0.00 | 0.04 | 0.00 | 52 | 1003.5 |
| 20260505000718 | 54 | 21 | 0.9 | 2.6 | 0.00 | 0.04 | 0.00 | 53 | 1003.2 |
| 20260505000518 | 55 | 45 | 4.3 | 5.2 | 0.00 | 0.04 | 0.00 | 52 | 1003.4 |
| 20260505000318 | 55 | 321 | 2.6 | 6.1 | 0.00 | 0.04 | 0.00 | 53 | 1003.4 |
| 20260505000117 | 55 | 7 | 2.6 | 3.5 | 0.00 | 0.04 | 0.00 | 53 | 1003.3 |
| 20260504235917 | 55 | 359 | 1.7 | 6.1 | 0.00 | 0.04 | 0.00 | 53 | 1003.3 |
| 20260504235717 | 55 | 332 | 1.7 | 3.5 | 0.00 | 0.04 | 0.00 | 53 | 1003.3 |
| 20260504235517 | 55 | 11 | 0.9 | 2.6 | 0.00 | 0.04 | 0.00 | 53 | 1003.2 |
| 20260504235317 | 55 | 35 | 1.7 | 5.2 | 0.00 | 0.04 | 0.00 | 53 | 1003.3 |
| 20260504235117 | 55 | 20 | 0.9 | 2.6 | 0.00 | 0.04 | 0.00 | 54 | 1003.3 |
| 20260504234917 | 55 | 333 | 1.7 | 5.2 | 0.00 | 0.04 | 0.00 | 53 | 1003.0 |
| 20260504234717 | 55 | 5 | 1.7 | 3.5 | 0.00 | 0.04 | 0.00 | 54 | 1003.2 |
| 20260504234317 | 55 | 8 | 2.6 | 5.2 | 0.00 | 0.04 | 0.00 | 53 | 1003.2 |
| 20260504234117 | 55 | 21 | 3.5 | 7.8 | 0.00 | 0.04 | 0.00 | 54 | 1003.1 |
| 20260504233918 | 55 | 15 | 1.7 | 5.2 | 0.00 | 0.04 | 0.00 | 55 | 1003.1 |
| 20260504233717 | 55 | 25 | 0.0 | 3.5 | 0.00 | 0.04 | 0.00 | 55 | 1003.3 |
| 20260504233517 | 55 | 11 | 3.5 | 6.1 | 0.00 | 0.04 | 0.00 | 55 | 1003.2 |
| 20260504233317 | 55 | 26 | 1.7 | 5.2 | 0.00 | 0.04 | 0.00 | 55 | 1003.1 |
| 20260504233117 | 55 | 58 | 1.7 | 5.2 | 0.00 | 0.04 | 0.00 | 55 | 1003.0 |
| 20260504232917 | 55 | 350 | 1.7 | 5.2 | 0.00 | 0.04 | 0.00 | 54 | 1003.2 |
| 20260504232717 | 55 | 349 | 2.6 | 5.2 | 0.00 | 0.04 | 0.00 | 55 | 1003.3 |
| 20260504232517 | 55 | 62 | 3.5 | 7.8 | 0.00 | 0.04 | 0.00 | 54 | 1003.0 |
| 20260504231917 | 55 | 40 | 1.7 | 3.5 | 0.00 | 0.04 | 0.00 | 54 | 1003.1 |
| 20260504231517 | 55 | 35 | 3.5 | 5.2 | 0.00 | 0.04 | 0.00 | 53 | 1003.0 |
| 20260504231117 | 55 | 10 | 2.6 | 7.0 | 0.00 | 0.04 | 0.00 | 53 | 1002.9 |
| 20260504230917 | 56 | 35 | 1.7 | 2.6 | 0.00 | 0.04 | 0.00 | 53 | 1003.0 |
| 20260504230717 | 56 | 34 | 4.3 | 8.7 | 0.00 | 0.04 | 0.00 | 53 | 1002.9 |
| 20260504230517 | 56 | 13 | 2.6 | 6.1 | 0.00 | 0.04 | 0.00 | 53 | 1002.8 |
| 20260504230316 | 56 | 41 | 3.5 | 7.8 | 0.00 | 0.04 | 0.00 | 53 | 1002.9 |
| 20260504230116 | 56 | 352 | 3.5 | 5.2 | 0.00 | 0.04 | 0.00 | 53 | 1002.8 |
| 20260504225916 | 56 | 44 | 3.5 | 7.0 | 0.00 | 0.04 | 0.00 | 53 | 1002.8 |
| 20260504225716 | 56 | 338 | 3.5 | 6.1 | 0.00 | 0.04 | 0.00 | 53 | 1002.7 |
| 20260504225516 | 56 | 15 | 3.5 | 6.1 | 0.00 | 0.04 | 0.00 | 53 | 1002.7 |
| 20260504225316 | 56 | 10 | 3.5 | 5.2 | 0.00 | 0.04 | 0.00 | 53 | 1002.5 |
| 20260504225116 | 56 | 351 | 1.7 | 5.2 | 0.00 | 0.04 | 0.00 | 53 | 1002.7 |
| 20260504224716 | 56 | 12 | 1.7 | 5.2 | 0.00 | 0.04 | 0.00 | 53 | 1002.4 |
| 20260504224516 | 56 | 353 | 3.5 | 7.0 | 0.00 | 0.04 | 0.00 | 53 | 1002.4 |
| 20260504224116 | 56 | 15 | 2.6 | 5.2 | 0.00 | 0.04 | 0.00 | 53 | 1002.3 |
| 20260504223716 | 56 | 334 | 0.9 | 7.0 | 0.00 | 0.04 | 0.00 | 53 | 1002.2 |
| 20260504223516 | 56 | 350 | 2.6 | 3.5 | 0.00 | 0.04 | 0.00 | 52 | 1002.4 |
| 20260504223316 | 56 | 42 | 1.7 | 2.6 | 0.00 | 0.04 | 0.00 | 52 | 1002.2 |
| 20260504222716 | 56 | 356 | 1.7 | 3.5 | 0.00 | 0.04 | 0.00 | 53 | 1002.5 |
| 20260504222316 | 56 | 7 | 1.7 | 13.0 | 0.00 | 0.04 | 0.00 | 52 | 1002.3 |
| 20260504222116 | 56 | 347 | 1.7 | 2.6 | 0.00 | 0.04 | 0.00 | 53 | 1002.4 |
| 20260504221916 | 56 | 347 | 4.3 | 6.1 | 0.00 | 0.04 | 0.00 | 53 | 1002.4 |
| 20260504221716 | 56 | 354 | 3.5 | 7.8 | 0.00 | 0.04 | 0.00 | 53 | 1002.4 |
| 20260504221516 | 56 | 357 | 7.0 | 8.7 | 0.00 | 0.04 | 0.00 | 52 | 1002.5 |
| 20260504221316 | 56 | 21 | 4.3 | 7.8 | 0.00 | 0.04 | 0.00 | 54 | 1002.5 |
| 20260504221116 | 56 | 15 | 2.6 | 5.2 | 0.00 | 0.04 | 0.00 | 55 | 1002.3 |
| 20260504220716 | 56 | 75 | 2.6 | 6.1 | 0.00 | 0.04 | 0.00 | 54 | 1002.3 |
| 20260504220315 | 56 | 30 | 3.5 | 3.5 | 0.00 | 0.04 | 0.00 | 53 | 1002.5 |
| 20260504215915 | 57 | 24 | 2.6 | 3.5 | 0.00 | 0.04 | 0.00 | 52 | 1002.5 |
| 20260504215716 | 57 | 301 | 3.5 | 7.0 | 0.00 | 0.04 | 0.00 | 51 | 1002.3 |
| 20260504215315 | 57 | 38 | 3.5 | 7.0 | 0.00 | 0.04 | 0.00 | 51 | 1002.5 |
| 20260504215115 | 57 | 300 | 2.6 | 5.2 | 0.00 | 0.04 | 0.00 | 51 | 1002.2 |
| 20260504214915 | 57 | 18 | 2.6 | 5.2 | 0.00 | 0.04 | 0.00 | 51 | 1002.3 |
| 20260504214715 | 57 | 19 | 3.5 | 5.2 | 0.00 | 0.04 | 0.00 | 52 | 1002.1 |
| 20260504214515 | 57 | 41 | 0.9 | 5.2 | 0.00 | 0.04 | 0.00 | 51 | 1002.2 |
| 20260504214315 | 57 | 65 | 1.7 | 3.5 | 0.00 | 0.04 | 0.00 | 51 | 1001.9 |
| 20260504213915 | 57 | 30 | 1.7 | 3.5 | 0.00 | 0.04 | 0.00 | 50 | 1002.2 |
| 20260504213715 | 57 | 43 | 1.7 | 6.1 | 0.00 | 0.04 | 0.00 | 49 | 1002.1 |
| 20260504213515 | 58 | 43 | 2.6 | 6.1 | 0.00 | 0.04 | 0.00 | 49 | 1002.1 |
| 20260504213115 | 58 | 32 | 4.3 | 7.8 | 0.00 | 0.04 | 0.00 | 47 | 1002.0 |
| 20260504212915 | 58 | 18 | 1.7 | 11.3 | 0.00 | 0.04 | 0.00 | 46 | 1002.0 |
| 20260504212515 | 58 | 77 | 2.6 | 5.2 | 0.00 | 0.04 | 0.00 | 44 | 1002.1 |
| 20260504212315 | 59 | 49 | 1.7 | 5.2 | 0.00 | 0.04 | 0.00 | 44 | 1002.0 |
| 20260504212115 | 59 | 56 | 2.6 | 3.5 | 0.00 | 0.04 | 0.00 | 43 | 1001.8 |
| 20260504211915 | 59 | 40 | 2.6 | 9.6 | 0.00 | 0.04 | 0.00 | 42 | 1001.9 |
| 20260504211715 | 59 | 5 | 3.5 | 8.7 | 0.00 | 0.04 | 0.00 | 42 | 1001.7 |
| 20260504211515 | 59 | 42 | 3.5 | 7.8 | 0.00 | 0.04 | 0.00 | 42 | 1001.8 |
| 20260504211315 | 59 | 64 | 6.1 | 11.3 | 0.00 | 0.04 | 0.00 | 40 | 1001.7 |
| 20260504211115 | 59 | 352 | 6.1 | 7.8 | 0.00 | 0.04 | 0.00 | 39 | 1001.7 |
| 20260504210915 | 59 | 42 | 0.9 | 5.2 | 0.00 | 0.04 | 0.00 | 39 | 1001.7 |
| 20260504210715 | 59 | 34 | 2.6 | 13.0 | 0.00 | 0.04 | 0.00 | 38 | 1001.5 |
| 20260504210515 | 59 | 65 | 3.5 | 5.2 | 0.00 | 0.04 | 0.00 | 37 | 1001.4 |
| 20260504205914 | 60 | 344 | 2.6 | 7.0 | 0.00 | 0.04 | 0.00 | 37 | 1001.6 |
| 20260504205514 | 60 | 17 | 2.6 | 8.7 | 0.00 | 0.04 | 0.00 | 37 | 1001.7 |
| 20260504205114 | 60 | 18 | 1.7 | 7.8 | 0.00 | 0.04 | 0.00 | 36 | 1001.3 |
| 20260504204714 | 60 | 51 | 0.9 | 7.8 | 0.00 | 0.04 | 0.00 | 36 | 1001.4 |
| 20260504204514 | 60 | 30 | 8.7 | 13.9 | 0.00 | 0.04 | 0.00 | 34 | 1001.3 |
| 20260504204314 | 60 | 4 | 1.7 | 5.2 | 0.00 | 0.04 | 0.00 | 34 | 1001.2 |
| 20260504204114 | 60 | 7 | 4.3 | 7.0 | 0.00 | 0.04 | 0.00 | 34 | 1001.4 |
| 20260504203915 | 60 | 30 | 4.3 | 7.0 | 0.00 | 0.04 | 0.00 | 33 | 1001.5 |
| 20260504203514 | 60 | 30 | 1.7 | 8.7 | 0.00 | 0.04 | 0.00 | 33 | 1001.3 |
| 20260504203314 | 60 | 59 | 3.5 | 3.5 | 0.00 | 0.04 | 0.00 | 32 | 1001.1 |
| 20260504203114 | 60 | 44 | 0.9 | 5.2 | 0.00 | 0.04 | 0.00 | 34 | 1001.1 |
| 20260504202914 | 60 | 62 | 1.7 | 6.1 | 0.00 | 0.04 | 0.00 | 32 | 1001.2 |
| 20260504202714 | 60 | 28 | 1.7 | 7.8 | 0.00 | 0.04 | 0.00 | 32 | 1001.1 |
| 20260504202514 | 60 | 337 | 3.5 | 6.1 | 0.00 | 0.04 | 0.00 | 32 | 1001.2 |
| 20260504202314 | 61 | 61 | 4.3 | 7.8 | 0.00 | 0.04 | 0.00 | 32 | 1000.8 |
| 20260504202114 | 61 | 10 | 2.6 | 6.1 | 0.00 | 0.04 | 0.00 | 32 | 1001.0 |
| 20260504201914 | 61 | 33 | 0.9 | 7.0 | 0.00 | 0.04 | 0.00 | 33 | 1000.8 |
| 20260504201714 | 61 | 8 | 4.3 | 6.1 | 0.00 | 0.04 | 0.00 | 31 | 1000.7 |
| 20260504201514 | 62 | 16 | 2.6 | 6.1 | 0.00 | 0.04 | 0.00 | 31 | 1000.9 |
| 20260504201315 | 62 | 27 | 2.6 | 8.7 | 0.00 | 0.04 | 0.00 | 31 | 1000.7 |
| 20260504200914 | 62 | 303 | 3.5 | 7.0 | 0.00 | 0.04 | 0.00 | 30 | 1000.8 |
| 20260504200714 | 62 | 26 | 4.3 | 7.0 | 0.00 | 0.04 | 0.00 | 31 | 1000.7 |
| 20260504200514 | 62 | 37 | 3.5 | 6.1 | 0.00 | 0.04 | 0.00 | 29 | 1000.6 |
| 20260504200115 | 62 | 1 | 5.2 | 7.0 | 0.00 | 0.04 | 0.00 | 29 | 1000.7 |
| 20260504195914 | 62 | 37 | 3.5 | 6.1 | 0.00 | 0.04 | 0.00 | 28 | 1000.9 |
| 20260504195715 | 62 | 40 | 2.6 | 6.1 | 0.00 | 0.04 | 0.00 | 29 | 1000.6 |
| 20260504195514 | 62 | 34 | 4.3 | 12.2 | 0.00 | 0.04 | 0.00 | 28 | 1000.6 |
| 20260504195314 | 62 | 58 | 5.2 | 13.0 | 0.00 | 0.04 | 0.00 | 28 | 1000.7 |
| 20260504195114 | 62 | 35 | 3.5 | 14.8 | 0.00 | 0.04 | 0.00 | 29 | 1000.6 |
| 20260504194915 | 62 | 304 | 4.3 | 11.3 | 0.00 | 0.04 | 0.00 | 28 | 1000.7 |
| 20260504194714 | 63 | 36 | 2.6 | 11.3 | 0.00 | 0.04 | 0.00 | 29 | 1000.6 |
| 20260504194515 | 63 | 25 | 6.1 | 7.8 | 0.00 | 0.04 | 0.00 | 28 | 1000.7 |
| 20260504194315 | 63 | 40 | 4.3 | 9.6 | 0.00 | 0.04 | 0.00 | 27 | 1000.7 |
| 20260504193915 | 63 | 6 | 3.5 | 5.2 | 0.00 | 0.04 | 0.00 | 26 | 1000.6 |
| 20260504193715 | 63 | 37 | 3.5 | 6.1 | 0.00 | 0.04 | 0.00 | 27 | 1000.4 |
| 20260504193514 | 62 | 349 | 3.5 | 5.2 | 0.00 | 0.04 | 0.00 | 28 | 1000.7 |
| 20260504193315 | 62 | 46 | 1.7 | 7.0 | 0.00 | 0.04 | 0.00 | 30 | 1000.4 |
| 20260504193114 | 62 | 348 | 5.2 | 9.6 | 0.00 | 0.04 | 0.00 | 27 | 1000.5 |
| 20260504192915 | 62 | 40 | 1.7 | 5.2 | 0.00 | 0.04 | 0.00 | 29 | 1000.5 |
| 20260504192714 | 62 | 61 | 5.2 | 13.9 | 0.00 | 0.04 | 0.00 | 26 | 1000.6 |
| 20260504192514 | 62 | 15 | 3.5 | 9.6 | 0.00 | 0.04 | 0.00 | 28 | 1000.6 |
| 20260504192314 | 62 | 68 | 5.2 | 7.8 | 0.00 | 0.04 | 0.00 | 27 | 1000.6 |
| 20260504192114 | 62 | 2 | 3.5 | 7.8 | 0.00 | 0.04 | 0.00 | 28 | 1000.5 |
| 20260504191914 | 62 | 19 | 3.5 | 8.7 | 0.00 | 0.04 | 0.00 | 28 | 1000.4 |
| 20260504191714 | 62 | 62 | 1.7 | 7.8 | 0.00 | 0.04 | 0.00 | 28 | 1000.5 |
| 20260504191515 | 62 | 54 | 4.3 | 11.3 | 0.00 | 0.04 | 0.00 | 28 | 1000.6 |
| 20260504191114 | 62 | 5 | 5.2 | 7.0 | 0.00 | 0.04 | 0.00 | 28 | 1000.5 |
| 20260504190514 | 61 | 13 | 1.7 | 6.1 | 0.00 | 0.04 | 0.00 | 29 | 1000.6 |
| 20260504190315 | 61 | 84 | 3.5 | 8.7 | 0.00 | 0.04 | 0.00 | 30 | 1000.4 |
| 20260504185915 | 62 | 34 | 6.1 | 7.8 | 0.00 | 0.04 | 0.00 | 27 | 1000.6 |
| 20260504185515 | 62 | 34 | 2.6 | 6.1 | 0.00 | 0.04 | 0.00 | 30 | 1000.6 |
| 20260504185315 | 61 | 37 | 4.3 | 8.7 | 0.00 | 0.04 | 0.00 | 29 | 1000.5 |
| 20260504185114 | 61 | 67 | 3.5 | 9.6 | 0.00 | 0.04 | 0.00 | 30 | 1000.3 |
| 20260504184915 | 61 | 356 | 4.3 | 13.0 | 0.00 | 0.04 | 0.00 | 27 | 1000.3 |
| 20260504184715 | 61 | 57 | 6.1 | 9.6 | 0.00 | 0.04 | 0.00 | 28 | 1000.5 |
| 20260504184515 | 62 | 10 | 1.7 | 11.3 | 0.00 | 0.04 | 0.00 | 29 | 1000.4 |
| 20260504184314 | 62 | 344 | 3.5 | 9.6 | 0.00 | 0.04 | 0.00 | 27 | 1000.7 |
| 20260504184115 | 62 | 351 | 3.5 | 9.6 | 0.00 | 0.04 | 0.00 | 31 | 1000.6 |
| 20260504183915 | 62 | 56 | 2.6 | 6.1 | 0.00 | 0.04 | 0.00 | 29 | 1000.6 |
| 20260504183715 | 62 | 7 | 2.6 | 3.5 | 0.00 | 0.04 | 0.00 | 31 | 1000.3 |
| 20260504183515 | 61 | 64 | 5.2 | 7.0 | 0.00 | 0.04 | 0.00 | 28 | 1000.6 |
| 20260504183115 | 60 | 61 | 1.7 | 7.0 | 0.00 | 0.04 | 0.00 | 29 | 1000.6 |
| 20260504182915 | 61 | 66 | 6.1 | 11.3 | 0.00 | 0.04 | 0.00 | 27 | 1000.6 |
| 20260504182515 | 61 | 57 | 5.2 | 7.0 | 0.00 | 0.04 | 0.00 | 29 | 1000.6 |
| 20260504182315 | 61 | 42 | 4.3 | 13.0 | 0.00 | 0.04 | 0.00 | 28 | 1000.7 |
| 20260504182115 | 61 | 63 | 4.3 | 8.7 | 0.00 | 0.04 | 0.00 | 27 | 1000.5 |
| 20260504181914 | 60 | 29 | 2.6 | 5.2 | 0.00 | 0.04 | 0.00 | 29 | 1000.6 |
| 20260504181715 | 60 | 97 | 4.3 | 13.0 | 0.00 | 0.04 | 0.00 | 29 | 1000.6 |
| 20260504181515 | 61 | 52 | 4.3 | 9.6 | 0.00 | 0.04 | 0.00 | 28 | 1000.8 |
| 20260504181114 | 60 | 52 | 6.1 | 8.7 | 0.00 | 0.04 | 0.00 | 28 | 1000.5 |
| 20260504180915 | 60 | 73 | 6.1 | 7.8 | 0.00 | 0.04 | 0.00 | 28 | 1000.5 |
| 20260504180714 | 60 | 89 | 5.2 | 12.2 | 0.00 | 0.04 | 0.00 | 28 | 1000.9 |
| 20260504180514 | 60 | 20 | 3.5 | 11.3 | 0.00 | 0.04 | 0.00 | 30 | 1000.7 |
| 20260504180115 | 60 | 43 | 6.1 | 9.6 | 0.00 | 0.04 | 0.00 | 29 | 1000.6 |
| 20260504175715 | 59 | 25 | 3.5 | 7.0 | 0.00 | 0.04 | 0.00 | 30 | 1000.6 |
| 20260504175515 | 60 | 10 | 5.2 | 11.3 | 0.00 | 0.04 | 0.00 | 28 | 1000.8 |
| 20260504175315 | 60 | 68 | 6.1 | 9.6 | 0.00 | 0.04 | 0.00 | 28 | 1000.8 |
| 20260504175115 | 59 | 353 | 4.3 | 13.0 | 0.00 | 0.04 | 0.00 | 29 | 1000.8 |
| 20260504174915 | 59 | 48 | 1.7 | 11.3 | 0.00 | 0.04 | 0.00 | 32 | 1000.7 |
| 20260504174515 | 59 | 38 | 3.5 | 6.1 | 0.00 | 0.04 | 0.00 | 31 | 1000.7 |
| 20260504174315 | 58 | 79 | 6.1 | 8.7 | 0.00 | 0.04 | 0.00 | 30 | 1000.7 |
| 20260504174115 | 58 | 36 | 2.6 | 7.8 | 0.00 | 0.04 | 0.00 | 30 | 1001.0 |
| 20260504173915 | 58 | 81 | 9.6 | 15.6 | 0.00 | 0.04 | 0.00 | 28 | 1000.6 |
| 20260504173515 | 58 | 10 | 7.0 | 12.2 | 0.00 | 0.04 | 0.00 | 29 | 1000.9 |
| 20260504173315 | 58 | 47 | 7.8 | 9.6 | 0.00 | 0.04 | 0.00 | 28 | 1000.9 |
| 20260504173115 | 58 | 69 | 5.2 | 14.8 | 0.00 | 0.04 | 0.00 | 29 | 1000.7 |
| 20260504172915 | 58 | 76 | 4.3 | 11.3 | 0.00 | 0.04 | 0.00 | 28 | 1000.7 |
| 20260504172515 | 59 | 34 | 8.7 | 9.6 | 0.00 | 0.04 | 0.00 | 29 | 1000.7 |
| 20260504172315 | 59 | 33 | 3.5 | 7.8 | 0.00 | 0.04 | 0.00 | 30 | 1000.8 |
| 20260504172115 | 58 | 79 | 7.0 | 8.7 | 0.00 | 0.04 | 0.00 | 32 | 1000.7 |
| 20260504171915 | 57 | 48 | 3.5 | 8.7 | 0.00 | 0.04 | 0.00 | 33 | 1000.8 |
| 20260504171715 | 57 | 57 | 4.3 | 12.2 | 0.00 | 0.04 | 0.00 | 31 | 1000.8 |
| 20260504171515 | 57 | 78 | 6.1 | 15.6 | 0.00 | 0.04 | 0.00 | 32 | 1001.0 |
| 20260504171315 | 58 | 67 | 6.1 | 13.9 | 0.00 | 0.04 | 0.00 | 29 | 1000.8 |
| 20260504171115 | 58 | 73 | 7.8 | 12.2 | 0.00 | 0.04 | 0.00 | 29 | 1000.8 |
| 20260504170915 | 57 | 32 | 3.5 | 12.2 | 0.00 | 0.04 | 0.00 | 35 | 1000.9 |
| 20260504170715 | 58 | 52 | 7.8 | 9.6 | 0.00 | 0.04 | 0.00 | 30 | 1000.9 |
| 20260504170515 | 58 | 18 | 7.8 | 11.3 | 0.00 | 0.04 | 0.00 | 30 | 1000.7 |
| 20260504170314 | 58 | 302 | 7.0 | 12.2 | 0.00 | 0.04 | 0.00 | 31 | 1000.9 |
| 20260504170114 | 57 | 65 | 4.3 | 3.5 | 0.00 | 0.04 | 0.00 | 35 | 1000.6 |
| 20260504160313 | 55 | 65 | 2.6 | 8.7 | 0.00 | 0.04 | 0.00 | 38 | 1000.9 |
| 20260504160113 | 54 | 19 | 3.5 | 6.1 | 0.00 | 0.04 | 0.00 | 40 | 1001.2 |
| 20260504151113 | 53 | 18 | 7.0 | 13.0 | 0.00 | 0.04 | 0.00 | 48 | 1000.3 |
| 20260504150913 | 53 | 63 | 5.2 | 11.3 | 0.00 | 0.04 | 0.00 | 48 | 1000.6 |
| 20260504150713 | 53 | 65 | 4.3 | 12.2 | 0.00 | 0.04 | 0.00 | 48 | 1000.5 |
| 20260504150314 | 53 | 67 | 5.2 | 11.3 | 0.00 | 0.04 | 0.00 | 47 | 1000.5 |
| 20260504150113 | 53 | 11 | 3.5 | 8.7 | 0.00 | 0.04 | 0.00 | 48 | 1000.6 |
| 20260504141314 | 52 | 66 | 6.1 | 7.8 | 0.00 | 0.04 | 0.00 | 55 | 999.7 |
| 20260504141114 | 51 | 56 | 3.5 | 7.8 | 0.00 | 0.04 | 0.00 | 58 | 999.8 |
| 20260504140913 | 51 | 30 | 2.6 | 7.8 | 0.00 | 0.04 | 0.00 | 59 | 999.5 |
| 20260504140713 | 51 | 60 | 2.6 | 6.1 | 0.00 | 0.04 | 0.00 | 61 | 999.6 |
| 20260504140513 | 50 | 74 | 4.3 | 7.0 | 0.00 | 0.04 | 0.00 | 59 | 999.7 |
| 20260504140114 | 50 | 33 | 1.7 | 8.7 | 0.00 | 0.04 | 0.00 | 60 | 999.5 |
| 20260504130714 | 46 | 46 | 2.6 | 7.0 | 0.00 | 0.04 | 0.00 | 74 | 998.8 |
| 20260504130314 | 46 | 71 | 5.2 | 8.7 | 0.00 | 0.04 | 0.00 | 76 | 998.8 |
| 20260504130114 | 46 | 321 | 2.6 | 3.5 | 0.00 | 0.04 | 0.00 | 77 | 998.6 |
| 20260504120314 | 42 | 64 | 0.9 | 5.2 | 0.00 | 0.04 | 0.00 | 85 | 998.1 |
| 20260504110713 | 42 | 54 | 3.5 | 8.7 | 0.00 | 0.04 | 0.00 | 87 | 996.6 |
| 20260504110513 | 42 | 69 | 5.2 | 7.0 | 0.00 | 0.04 | 0.00 | 88 | 996.6 |
| 20260504110313 | 42 | 64 | 2.6 | 5.2 | 0.00 | 0.04 | 0.00 | 88 | 996.7 |
| 20260504110114 | 42 | 67 | 0.9 | 5.2 | 0.00 | 0.04 | 0.00 | 87 | 996.7 |
| 20260504100313 | 41 | 71 | 4.3 | 8.7 | 0.00 | 0.04 | 0.00 | 90 | 995.4 |
| 20260504100114 | 41 | 72 | 1.7 | 5.2 | 0.00 | 0.04 | 0.00 | 90 | 995.5 |